GIA923 WARR-WAHS

Flight info

Callsign GIA923
Flight time 0h 52m
Altitude 14000
Route LASEM
Aircraft AT76/M-SDFGIRY/S

Departure

Time 2026-04-29 06:07
Airport Juanda International Airport (WARR)

Arrival

Time 2026-04-29 06:59
Airport Jenderal Ahmad Yani Airport (WAHS)
Time Latitude Longitude Altitude Speed Heading
2026-04-29 05:55 -7.37828 112.78808 5 ft 10 kts 281°
2026-04-29 05:56 -7.37813 112.78721 5 ft 17 kts 279°
2026-04-29 05:56 -7.37789 112.78568 5 ft 26 kts 279°
2026-04-29 05:56 -7.37756 112.78367 6 ft 32 kts 279°
2026-04-29 05:56 -7.37719 112.78130 6 ft 36 kts 277°
2026-04-29 05:57 -7.37681 112.77897 6 ft 29 kts 279°
2026-04-29 05:57 -7.37655 112.77739 6 ft 17 kts 279°
2026-04-29 05:57 -7.37637 112.77630 5 ft 15 kts 279°
2026-04-29 05:57 -7.37621 112.77530 5 ft 14 kts 279°
2026-04-29 05:58 -7.37607 112.77435 5 ft 13 kts 269°
2026-04-29 05:58 -7.37666 112.77382 5 ft 12 kts 190°
2026-04-29 05:58 -7.37727 112.77371 5 ft 9 kts 189°
2026-04-29 05:58 -7.37770 112.77379 5 ft 3 kts 120°
2026-04-29 05:59 -7.37777 112.77414 6 ft 15 kts 100°
2026-04-29 05:59 -7.37818 112.77667 5 ft 64 kts 99°
2026-04-29 05:59 -7.37919 112.78289 5 ft 112 kts 98°
2026-04-29 05:59 -7.38100 112.79149 8 ft 135 kts 99°
2026-04-29 06:00 -7.38226 112.80084 4 ft 104 kts 98°
2026-04-29 06:00 -7.38260 112.80285 5 ft 0 kts 109°
2026-04-29 06:01 -7.38259 112.80281 5 ft 1 kts 109°
2026-04-29 06:01 -7.38255 112.80270 5 ft 2 kts 109°
2026-04-29 06:02 -7.38250 112.80255 5 ft 3 kts 109°
2026-04-29 06:02 -7.38244 112.80237 5 ft 3 kts 109°
2026-04-29 06:02 -7.38237 112.80222 5 ft 0 kts 98°
2026-04-29 06:02 -7.38237 112.80218 5 ft 1 kts 94°
2026-04-29 06:03 -7.38236 112.80208 5 ft 2 kts 94°
2026-04-29 06:03 -7.38235 112.80196 5 ft 1 kts 87°
2026-04-29 06:03 -7.38216 112.80208 5 ft 12 kts
2026-04-29 06:03 -7.38185 112.80040 3 ft 43 kts 268°
2026-04-29 06:04 -7.38143 112.79666 5 ft 60 kts 276°
2026-04-29 06:04 -7.38068 112.79221 8 ft 68 kts 279°
2026-04-29 06:04 -7.37991 112.78772 6 ft 42 kts 277°
2026-04-29 06:04 -7.37948 112.78570 5 ft 16 kts 286°
2026-04-29 06:05 -7.37963 112.78515 5 ft 7 kts 154°
2026-04-29 06:05 -7.37964 112.78534 5 ft 3 kts 70°
2026-04-29 06:05 -7.37963 112.78558 5 ft 0 kts 97°
2026-04-29 06:05 -7.37976 112.78643 6 ft 38 kts 98°
2026-04-29 06:06 -7.38051 112.79114 8 ft 96 kts 99°
2026-04-29 06:06 -7.38196 112.79914 5 ft 134 kts 104°
2026-04-29 06:06 -7.38434 112.80875 74 ft 144 kts 99°
2026-04-29 06:06 -7.38455 112.81866 375 ft 146 kts 87°
2026-04-29 06:07 -7.38356 112.82928 680 ft 157 kts 83°
2026-04-29 06:07 -7.38052 112.83986 1034 ft 162 kts 64°
2026-04-29 06:07 -7.37838 112.85069 1317 ft 164 kts 108°
2026-04-29 06:07 -7.38371 112.86085 1682 ft 165 kts 120°
2026-04-29 06:08 -7.38908 112.87104 2074 ft 165 kts 116°
2026-04-29 06:08 -7.39376 112.88161 2473 ft 166 kts 112°
2026-04-29 06:08 -7.39750 112.89258 2854 ft 166 kts 107°
2026-04-29 06:08 -7.40009 112.90395 3246 ft 168 kts 95°
2026-04-29 06:09 -7.39619 112.91471 3588 ft 170 kts 41°
2026-04-29 06:09 -7.38532 112.91833 3936 ft 169 kts 350°
2026-04-29 06:09 -7.37568 112.91232 4287 ft 167 kts 300°
2026-04-29 06:09 -7.37312 112.90126 4642 ft 162 kts 274°
2026-04-29 06:10 -7.37183 112.88989 5008 ft 164 kts 277°
2026-04-29 06:10 -7.37012 112.87848 5381 ft 165 kts 277°
2026-04-29 06:10 -7.36833 112.86706 5756 ft 165 kts 280°
2026-04-29 06:10 -7.36570 112.85577 6126 ft 166 kts 284°
2026-04-29 06:11 -7.36211 112.84470 6491 ft 167 kts 289°
2026-04-29 06:11 -7.35763 112.83392 6862 ft 167 kts 294°
2026-04-29 06:11 -7.35239 112.82343 7240 ft 168 kts 297°
2026-04-29 06:11 -7.34665 112.81319 7592 ft 168 kts 299°
2026-04-29 06:12 -7.34096 112.80344 7888 ft 161 kts 300°
2026-04-29 06:12 -7.33543 112.79380 8158 ft 158 kts 299°
2026-04-29 06:12 -7.32995 112.78428 8361 ft 157 kts 299°
2026-04-29 06:12 -7.32451 112.77476 8539 ft 157 kts 298°
2026-04-29 06:13 -7.31907 112.76522 8737 ft 156 kts 298°
2026-04-29 06:13 -7.31363 112.75571 8921 ft 156 kts 299°
2026-04-29 06:13 -7.30823 112.74620 9095 ft 157 kts 299°
2026-04-29 06:13 -7.30267 112.73650 9168 ft 165 kts 299°
2026-04-29 06:14 -7.29672 112.72622 9200 ft 174 kts 300°
2026-04-29 06:14 -7.29038 112.71548 9242 ft 182 kts 300°
2026-04-29 06:14 -7.28381 112.70432 9290 ft 188 kts 299°
2026-04-29 06:14 -7.27720 112.69281 9340 ft 192 kts 299°
2026-04-29 06:15 -7.27050 112.68107 9384 ft 195 kts 299°
2026-04-29 06:15 -7.26370 112.66913 9429 ft 197 kts 299°
2026-04-29 06:15 -7.25916 112.66119 9476 ft 198 kts 299°
2026-04-29 06:15 -7.25000 112.64510 9581 ft 198 kts 299°
2026-04-29 06:16 -7.24545 112.63711 9627 ft 198 kts 299°
2026-04-29 06:16 -7.23636 112.62115 9727 ft 198 kts 299°
2026-04-29 06:16 -7.22948 112.60907 9804 ft 199 kts 299°
2026-04-29 06:16 -7.22489 112.60089 9830 ft 199 kts 298°
2026-04-29 06:17 -7.21809 112.58875 9884 ft 199 kts 298°
2026-04-29 06:17 -7.21138 112.57677 9950 ft 199 kts 298°
2026-04-29 06:17 -7.20455 112.56464 9999 ft 199 kts 299°
2026-04-29 06:17 -7.19772 112.55251 10053 ft 199 kts 298°
2026-04-29 06:18 -7.19089 112.54035 10193 ft 199 kts 298°
2026-04-29 06:18 -7.18400 112.52818 10493 ft 200 kts 298°
2026-04-29 06:18 -7.17706 112.51598 10779 ft 201 kts 299°
2026-04-29 06:18 -7.17011 112.50374 11058 ft 202 kts 299°
2026-04-29 06:19 -7.16312 112.49146 11313 ft 202 kts 299°
2026-04-29 06:19 -7.15608 112.47911 11584 ft 203 kts 299°
2026-04-29 06:19 -7.14903 112.46675 11850 ft 204 kts 299°
2026-04-29 06:19 -7.14194 112.45432 12119 ft 205 kts 299°
2026-04-29 06:20 -7.13483 112.44185 12363 ft 206 kts 299°
2026-04-29 06:20 -7.12778 112.42949 12610 ft 207 kts 299°
2026-04-29 06:20 -7.12058 112.41691 12859 ft 207 kts 299°
2026-04-29 06:20 -7.11340 112.40429 13123 ft 208 kts 299°
2026-04-29 06:21 -7.10616 112.39161 13355 ft 209 kts 299°
2026-04-29 06:21 -7.09890 112.37890 13594 ft 210 kts 299°
2026-04-29 06:21 -7.09162 112.36612 13814 ft 211 kts 299°
2026-04-29 06:21 -7.08429 112.35328 14006 ft 213 kts 299°
2026-04-29 06:22 -7.07679 112.34014 14068 ft 220 kts 299°
2026-04-29 06:22 -7.06899 112.32649 14120 ft 228 kts 299°
2026-04-29 06:22 -7.06097 112.31244 14129 ft 234 kts 299°
2026-04-29 06:22 -7.05274 112.29802 14137 ft 240 kts 299°
2026-04-29 06:23 -7.04432 112.28328 14152 ft 246 kts 299°
2026-04-29 06:23 -7.03575 112.26820 14151 ft 250 kts 299°
2026-04-29 06:23 -7.02700 112.25288 14141 ft 254 kts 299°
2026-04-29 06:23 -7.01816 112.23741 14139 ft 256 kts 299°
2026-04-29 06:24 -7.00925 112.22179 14150 ft 258 kts 299°
2026-04-29 06:24 -7.00027 112.20607 14138 ft 260 kts 299°
2026-04-29 06:24 -6.99123 112.19026 14141 ft 261 kts 299°
2026-04-29 06:24 -6.98218 112.17442 14140 ft 262 kts 300°
2026-04-29 06:25 -6.97307 112.15847 14141 ft 262 kts 299°
2026-04-29 06:25 -6.96407 112.14278 14146 ft 261 kts 300°
2026-04-29 06:25 -6.95446 112.12728 14149 ft 261 kts 302°
2026-04-29 06:25 -6.94442 112.11205 14140 ft 262 kts 303°
2026-04-29 06:26 -6.93430 112.09676 14146 ft 262 kts 303°
2026-04-29 06:26 -6.92424 112.08143 14147 ft 263 kts 303°
2026-04-29 06:26 -6.91407 112.06617 14148 ft 263 kts 305°
2026-04-29 06:26 -6.90366 112.05103 14141 ft 263 kts 303°
2026-04-29 06:27 -6.89347 112.03569 14149 ft 263 kts 303°
2026-04-29 06:27 -6.88335 112.02028 14145 ft 264 kts 303°
2026-04-29 06:27 -6.87327 112.00487 14142 ft 264 kts 303°
2026-04-29 06:27 -6.86319 111.98939 14148 ft 264 kts 302°
2026-04-29 06:28 -6.85321 111.97389 14148 ft 264 kts 302°
2026-04-29 06:28 -6.84327 111.95858 14148 ft 264 kts 303°
2026-04-29 06:28 -6.83313 111.94314 14149 ft 264 kts 303°
2026-04-29 06:28 -6.82297 111.92770 14145 ft 265 kts 303°
2026-04-29 06:29 -6.81283 111.91223 14148 ft 265 kts 303°
2026-04-29 06:29 -6.80268 111.89671 14141 ft 265 kts 303°
2026-04-29 06:29 -6.79254 111.88123 14148 ft 265 kts 303°
2026-04-29 06:29 -6.78239 111.86572 14142 ft 265 kts 303°
2026-04-29 06:30 -6.77226 111.85027 14144 ft 264 kts 303°
2026-04-29 06:30 -6.75202 111.81943 14146 ft 264 kts 303°
2026-04-29 06:30 -6.74193 111.80400 14144 ft 263 kts 303°
2026-04-29 06:31 -6.73195 111.78860 14146 ft 262 kts 300°
2026-04-29 06:31 -6.72712 111.77148 14148 ft 260 kts 268°
2026-04-29 06:31 -6.73195 111.75422 14149 ft 256 kts 244°
2026-04-29 06:31 -6.73933 111.73793 14145 ft 257 kts 247°
2026-04-29 06:32 -6.74530 111.72092 14139 ft 257 kts 254°
2026-04-29 06:32 -6.74905 111.70327 14142 ft 259 kts 261°
2026-04-29 06:32 -6.75115 111.68525 14150 ft 260 kts 264°
2026-04-29 06:32 -6.75280 111.66712 14155 ft 261 kts 264°
2026-04-29 06:33 -6.75446 111.64889 14147 ft 262 kts 264°
2026-04-29 06:33 -6.75632 111.63086 14148 ft 262 kts 263°
2026-04-29 06:33 -6.75840 111.61240 14137 ft 262 kts 263°
2026-04-29 06:33 -6.76046 111.59448 14144 ft 262 kts 263°
2026-04-29 06:34 -6.76254 111.57630 14147 ft 262 kts 263°
2026-04-29 06:34 -6.76465 111.55812 14148 ft 262 kts 263°
2026-04-29 06:34 -6.76674 111.53987 14146 ft 262 kts 263°
2026-04-29 06:34 -6.76884 111.52164 14144 ft 262 kts 263°
2026-04-29 06:35 -6.77095 111.50333 14140 ft 262 kts 263°
2026-04-29 06:35 -6.77305 111.48511 14146 ft 262 kts 263°
2026-04-29 06:35 -6.77515 111.46687 14145 ft 262 kts 263°
2026-04-29 06:35 -6.77723 111.44862 14148 ft 262 kts 263°
2026-04-29 06:36 -6.77934 111.43040 14145 ft 262 kts 263°
2026-04-29 06:36 -6.78140 111.41240 14148 ft 262 kts 263°
2026-04-29 06:36 -6.78352 111.39392 14143 ft 262 kts 263°
2026-04-29 06:36 -6.78558 111.37592 14147 ft 262 kts 263°
2026-04-29 06:37 -6.78771 111.35743 14145 ft 262 kts 263°
2026-04-29 06:37 -6.78977 111.33944 14149 ft 262 kts 263°
2026-04-29 06:37 -6.79187 111.32116 14149 ft 263 kts 263°
2026-04-29 06:37 -6.79396 111.30291 14135 ft 263 kts 263°
2026-04-29 06:38 -6.79605 111.28462 14144 ft 263 kts 263°
2026-04-29 06:38 -6.79816 111.26625 14148 ft 263 kts 263°
2026-04-29 06:38 -6.80026 111.24794 14146 ft 263 kts 263°
2026-04-29 06:38 -6.80235 111.22963 14146 ft 263 kts 263°
2026-04-29 06:39 -6.80446 111.21131 14148 ft 263 kts 263°
2026-04-29 06:39 -6.80655 111.19305 14145 ft 263 kts 263°
2026-04-29 06:39 -6.80863 111.17476 14149 ft 263 kts 263°
2026-04-29 06:39 -6.81072 111.15645 14147 ft 263 kts 263°
2026-04-29 06:40 -6.81283 111.13817 14141 ft 263 kts 263°
2026-04-29 06:40 -6.81491 111.11989 14141 ft 263 kts 263°
2026-04-29 06:40 -6.81697 111.10188 14148 ft 263 kts 263°
2026-04-29 06:40 -6.81907 111.08361 14149 ft 263 kts 263°
2026-04-29 06:41 -6.82115 111.06534 14147 ft 263 kts 263°
2026-04-29 06:41 -6.82325 111.04709 14147 ft 263 kts 263°
2026-04-29 06:41 -6.82533 111.02881 14145 ft 263 kts 263°
2026-04-29 06:41 -6.82740 111.01052 14140 ft 263 kts 263°
2026-04-29 06:42 -6.82948 110.99227 14151 ft 263 kts 263°
2026-04-29 06:42 -6.83158 110.97396 14145 ft 263 kts 263°
2026-04-29 06:42 -6.83364 110.95570 14148 ft 263 kts 263°
2026-04-29 06:42 -6.83574 110.93743 14141 ft 263 kts 263°
2026-04-29 06:43 -6.83781 110.91917 14148 ft 262 kts 263°
2026-04-29 06:43 -6.83988 110.90094 14144 ft 262 kts 263°
2026-04-29 06:43 -6.84197 110.88271 14147 ft 262 kts 263°
2026-04-29 06:43 -6.84419 110.86444 14150 ft 263 kts 261°
2026-04-29 06:44 -6.84720 110.84631 14144 ft 263 kts 259°
2026-04-29 06:44 -6.85068 110.82831 14140 ft 262 kts 258°
2026-04-29 06:44 -6.85410 110.81052 14146 ft 262 kts 259°
2026-04-29 06:44 -6.85758 110.79248 14145 ft 262 kts 258°
2026-04-29 06:45 -6.86102 110.77447 14143 ft 262 kts 259°
2026-04-29 06:45 -6.86438 110.75647 14149 ft 262 kts 259°
2026-04-29 06:45 -6.86766 110.73845 14146 ft 262 kts 259°
2026-04-29 06:45 -6.87095 110.72038 14145 ft 262 kts 259°
2026-04-29 06:46 -6.87423 110.70234 14145 ft 262 kts 259°
2026-04-29 06:46 -6.87754 110.68435 14146 ft 261 kts 259°
2026-04-29 06:46 -6.88086 110.66636 14147 ft 261 kts 259°
2026-04-29 06:46 -6.88413 110.64859 14145 ft 261 kts 259°
2026-04-29 06:47 -6.88749 110.63029 13820 ft 272 kts 259°
2026-04-29 06:47 -6.89081 110.61168 13457 ft 268 kts 259°
2026-04-29 06:47 -6.89405 110.59328 13087 ft 265 kts 259°
2026-04-29 06:47 -6.89733 110.57518 12726 ft 262 kts 259°
2026-04-29 06:48 -6.89857 110.55723 12371 ft 256 kts 280°
2026-04-29 06:48 -6.89255 110.54055 12023 ft 254 kts 296°
2026-04-29 06:48 -6.88379 110.52511 11672 ft 253 kts 301°
2026-04-29 06:48 -6.87460 110.51025 11329 ft 253 kts 301°
2026-04-29 06:49 -6.86531 110.49525 10984 ft 252 kts 301°
2026-04-29 06:49 -6.85637 110.48017 10639 ft 250 kts 300°
2026-04-29 06:49 -6.84757 110.46515 10290 ft 247 kts 300°
2026-04-29 06:49 -6.83883 110.45032 9959 ft 245 kts 300°
2026-04-29 06:50 -6.83018 110.43562 9624 ft 243 kts 300°
2026-04-29 06:50 -6.82160 110.42101 9291 ft 241 kts 300°
2026-04-29 06:50 -6.81309 110.40652 8961 ft 240 kts 300°
2026-04-29 06:50 -6.80463 110.39210 8636 ft 238 kts 300°
2026-04-29 06:51 -6.79622 110.37777 8308 ft 237 kts 300°
2026-04-29 06:51 -6.78784 110.36350 7985 ft 236 kts 300°
2026-04-29 06:51 -6.77963 110.34952 7667 ft 234 kts 300°
2026-04-29 06:51 -6.77134 110.33541 7349 ft 233 kts 300°
2026-04-29 06:52 -6.76311 110.32140 7032 ft 232 kts 300°
2026-04-29 06:52 -6.75575 110.30709 6693 ft 228 kts 285°
2026-04-29 06:52 -6.75650 110.29147 6371 ft 226 kts 249°
2026-04-29 06:52 -6.76384 110.27761 6052 ft 224 kts 236°
2026-04-29 06:53 -6.77332 110.26562 5740 ft 212 kts 227°
2026-04-29 06:53 -6.78364 110.25575 5448 ft 199 kts 221°
2026-04-29 06:53 -6.79400 110.24705 5168 ft 189 kts 219°
2026-04-29 06:53 -6.80406 110.23885 4903 ft 185 kts 219°
2026-04-29 06:54 -6.81402 110.23076 4648 ft 182 kts 219°
2026-04-29 06:54 -6.82426 110.22334 4360 ft 183 kts 202°
2026-04-29 06:54 -6.83670 110.22344 4096 ft 188 kts 157°
2026-04-29 06:54 -6.84757 110.23024 3816 ft 182 kts 143°
2026-04-29 06:55 -6.85701 110.23848 3543 ft 178 kts 136°
2026-04-29 06:55 -6.86546 110.24740 3282 ft 174 kts 133°
2026-04-29 06:55 -6.87321 110.25636 3057 ft 167 kts 131°
2026-04-29 06:55 -6.88145 110.26526 2538 ft 177 kts 135°
2026-04-29 06:56 -6.89002 110.27376 2249 ft 169 kts 136°
2026-04-29 06:56 -6.89770 110.28245 1994 ft 165 kts 129°
2026-04-29 06:56 -6.90455 110.29138 1769 ft 157 kts 128°
2026-04-29 06:56 -6.91109 110.29983 1562 ft 149 kts 130°
2026-04-29 06:57 -6.91743 110.30753 1378 ft 135 kts 131°
2026-04-29 06:57 -6.92313 110.31441 1215 ft 122 kts 131°
2026-04-29 06:57 -6.92830 110.32074 1063 ft 115 kts 130°
2026-04-29 06:57 -6.93326 110.32689 919 ft 112 kts 130°
2026-04-29 06:58 -6.93817 110.33295 773 ft 111 kts 130°
2026-04-29 06:58 -6.94303 110.33901 628 ft 111 kts 129°
2026-04-29 06:58 -6.94762 110.34524 482 ft 111 kts 128°
2026-04-29 06:58 -6.95064 110.34939 390 ft 110 kts 129°
2026-04-29 06:59 -6.95701 110.35735 205 ft 109 kts 132°
2026-04-29 06:59 -6.96204 110.36315 49 ft 110 kts 133°
2026-04-29 06:59 -6.96598 110.36767 3 ft 41 kts 130°
2026-04-29 06:59 -6.96683 110.36873 2 ft 5 kts 128°
2026-04-29 07:00 -6.96691 110.36883 2 ft 4 kts 128°
2026-04-29 07:00 -6.96720 110.36919 3 ft 9 kts 130°
2026-04-29 07:00 -6.96767 110.36975 3 ft 11 kts 130°
2026-04-29 07:00 -6.96787 110.37050 3 ft 13 kts 58°
2026-04-29 07:01 -6.96729 110.37103 11 ft 10 kts 40°
2026-04-29 07:01 -6.96672 110.37151 14 ft 12 kts 40°
2026-04-29 07:01 -6.96614 110.37204 15 ft 8 kts 64°
2026-04-29 07:01 -6.96642 110.37247 15 ft 9 kts 130°
2026-04-29 07:02 -6.96691 110.37306 15 ft 13 kts 130°
2026-04-29 07:02 -6.96752 110.37379 15 ft 14 kts 130°
2026-04-29 07:02 -6.96819 110.37458 15 ft 14 kts 130°
2026-04-29 07:02 -6.96845 110.37490 15 ft 3 kts 130°
2026-04-29 07:03 -6.96865 110.37512 15 ft 2 kts 131°
2026-04-29 07:03 -6.96856 110.37541 15 ft 7 kts 47°
2026-04-29 07:03 -6.96816 110.37575 15 ft 0 kts 40°
2026-04-29 07:03 -6.96815 110.37576 15 ft 0 kts 40°